EW7157 Weather Reports


Display with metric or nautical units.
time (UTC)temp
F
wind
direction
speed
MPH
gust
MPH
rain 1hr
in
rain 24hr
in
rain mn
in
humidity
%
barometer
mb
20220627053025 71 292 0.0 1.0 0.00 0.00 0.00 70 1019.4
20220627052038 71 270 0.0 1.0 0.00 0.00 0.00 70 1019.4
20220627051024 72 337 1.0 2.0 0.00 0.00 0.00 69 1019.6
20220627050026 72 75 0.0 0.0 0.00 0.00 0.00 69 1019.6
20220627045925 72 80 0.0 1.0 0.00 0.00 0.00 68 1019.5
20220627045825 72 315 0.0 0.0 0.00 0.00 0.00 68 1019.7
20220627045725 72 315 0.0 1.0 0.00 0.00 0.00 69 1019.8
20220627044825 72 315 2.0 3.0 0.00 0.00 0.00 69 1019.6
20220627043825 72 358 0.0 1.0 0.00 0.00 0.00 68 1019.5
20220627043725 72 45 0.0 2.0 0.00 0.00 0.00 69 1019.6
20220627043624 72 225 0.0 0.0 0.00 0.00 0.00 69 1019.7
20220627042627 73 205 0.0 2.0 0.00 0.00 0.00 68 1019.6
20220627041625 73 318 1.0 2.0 0.00 0.00 0.00 68 1019.6
20220627040626 73 1 0.0 1.0 0.00 0.00 0.00 66 1019.7
20220627035628 74 271 0.0 1.0 0.00 0.00 0.00 66 1019.6
20220627034629 74 265 0.0 0.0 0.00 0.00 0.00 66 1019.6
20220627033629 74 270 0.0 0.0 0.00 0.00 0.00 64 1019.6
20220627032628 74 270 0.0 0.0 0.00 0.00 0.00 65 1019.6
20220627031629 74 337 0.0 0.0 0.00 0.00 0.00 65 1019.5
20220627031529 74 337 0.0 0.0 0.00 0.00 0.00 64 1019.5
20220627030529 74 45 0.0 0.0 0.00 0.00 0.00 65 1019.5
20220627025530 74 45 0.0 0.0 0.00 0.00 0.00 66 1019.9
20220627024629 74 315 0.0 0.0 0.00 0.00 0.00 67 1019.9
20220627024530 74 315 0.0 0.0 0.00 0.00 0.00 67 1020.0
20220627024430 74 315 0.0 0.0 0.00 0.00 0.00 67 1020.0
20220627023429 74 315 0.0 0.0 0.00 0.00 0.00 65 1020.0
20220627022428 75 315 0.0 0.0 0.00 0.00 0.00 64 1020.1
20220627021430 75 315 0.0 0.0 0.00 0.00 0.00 62 1020.0
20220627021329 75 315 0.0 0.0 0.00 0.00 0.00 62 1020.0
20220627021228 75 315 0.0 0.0 0.00 0.00 0.00 63 1020.2
20220627021131 75 315 0.0 0.0 0.00 0.00 0.00 63 1020.2
20220627020128 75 315 0.0 0.0 0.00 0.00 0.00 63 1020.0
20220627015130 75 315 0.0 0.0 0.00 0.00 0.00 63 1019.9
20220627015030 75 315 0.0 1.0 0.00 0.00 0.00 63 1019.8
20220627014128 75 270 0.0 0.0 0.00 0.00 0.00 63 1019.9
20220627013128 76 225 0.0 0.0 0.00 0.00 0.00 62 1019.8
20220627012130 76 202 0.0 1.0 0.00 0.00 0.00 61 1019.7
20220627012029 76 218 0.0 3.0 0.00 0.00 0.00 60 1019.7
20220627011029 76 247 0.0 0.0 0.00 0.00 0.00 61 1019.5
20220627010030 76 67 0.0 0.0 0.00 0.00 0.00 60 1019.5
20220627005128 77 225 0.0 1.0 0.00 0.00 0.00 59 1019.6
20220627005028 77 225 1.0 3.0 0.00 0.00 0.00 58 1019.5
20220627004929 77 45 0.0 0.0 0.00 0.00 0.00 59 1019.5
20220627003930 77 270 0.0 0.0 0.00 0.00 0.00 58 1019.6
20220627002928 78 337 0.0 1.0 0.00 0.00 0.00 57 1019.5
20220627002830 78 352 1.0 2.0 0.00 0.00 0.00 58 1019.5
20220627002729 78 270 0.0 0.0 0.00 0.00 0.00 58 1019.5
20220627001729 78 247 0.0 0.0 0.00 0.00 0.00 56 1019.5
20220627000729 79 292 0.0 0.0 0.00 0.00 0.00 55 1019.5
20220626235828 79 225 0.0 0.0 0.00 0.00 0.00 55 1019.4
20220626234928 80 270 0.0 0.0 0.00 0.00 0.00 55 1019.4
20220626233929 80 305 1.0 3.0 0.00 0.00 0.00 54 1019.3
20220626233828 80 270 0.0 0.0 0.00 0.00 0.00 54 1019.2
20220626233729 80 52 0.0 0.0 0.00 0.00 0.00 53 1019.2
20220626232828 80 157 0.0 0.0 0.00 0.00 0.00 54 1019.2
20220626232730 80 157 0.0 0.0 0.00 0.00 0.00 54 1019.2
20220626232630 80 165 1.0 3.0 0.00 0.00 0.00 54 1019.2
20220626232530 80 2 1.0 3.0 0.00 0.00 0.00 54 1019.1
20220626231629 80 294 1.0 2.0 0.00 0.00 0.00 54 1019.0
20220626230629 81 315 1.0 2.0 0.00 0.00 0.00 54 1019.0
20220626230529 81 315 0.0 1.0 0.00 0.00 0.00 54 1019.1
20220626230429 81 315 0.0 0.0 0.00 0.00 0.00 54 1019.1
20220626225529 81 360 0.0 0.0 0.00 0.00 0.00 53 1019.2
20220626224529 81 225 0.0 0.0 0.00 0.00 0.00 52 1019.2
20220626223529 82 290 1.0 4.0 0.00 0.00 0.00 52 1019.2
20220626223430 82 300 0.0 0.0 0.00 0.00 0.00 52 1019.1
20220626222527 82 287 0.0 2.0 0.00 0.00 0.00 52 1019.0
20220626222429 82 45 0.0 0.0 0.00 0.00 0.00 52 1019.1
20220626222328 82 342 0.0 2.0 0.00 0.00 0.00 51 1019.0
20220626222229 82 323 0.0 2.0 0.00 0.00 0.00 52 1019.0
20220626221231 82 22 0.0 1.0 0.00 0.00 0.00 52 1019.0
20220626220228 83 315 0.0 0.0 0.00 0.00 0.00 51 1019.0
20220626220129 83 315 0.0 0.0 0.00 0.00 0.00 51 1019.0
20220626215129 84 270 0.0 0.0 0.00 0.00 0.00 49 1019.3
20220626214129 85 255 1.0 4.0 0.00 0.00 0.00 48 1019.0
20220626214031 85 312 0.0 1.0 0.00 0.00 0.00 48 1019.0
20220626213129 86 355 0.0 2.0 0.00 0.00 0.00 47 1019.1
20220626213029 86 341 0.0 2.0 0.00 0.00 0.00 47 1019.1
20220626212028 86 315 0.0 2.0 0.00 0.00 0.00 45 1019.1
20220626211931 86 322 0.0 3.0 0.00 0.00 0.00 46 1019.2
20220626211830 86 173 0.0 1.0 0.00 0.00 0.00 46 1019.3
20220626210928 87 269 0.0 1.0 0.00 0.00 0.00 46 1019.3
20220626205928 87 349 0.0 0.0 0.00 0.00 0.00 45 1019.5
20220626205830 87 59 0.0 9.0 0.00 0.00 0.00 46 1019.4
20220626204829 87 326 1.0 2.0 0.00 0.00 0.00 45 1019.4
20220626203830 87 3 1.0 3.0 0.00 0.00 0.00 45 1019.6
20220626203731 87 26 2.0 5.0 0.00 0.00 0.00 45 1019.5
20220626202828 88 225 2.0 4.0 0.00 0.00 0.00 44 1019.5
20220626202729 88 247 0.0 4.0 0.00 0.00 0.00 45 1019.6
20220626202631 88 168 0.0 2.0 0.00 0.00 0.00 45 1019.7
20220626201728 88 270 0.0 0.0 0.00 0.00 0.00 44 1019.6
20220626201628 88 270 0.0 0.0 0.00 0.00 0.00 44 1019.6
20220626201529 88 254 0.0 0.0 0.00 0.00 0.00 43 1019.6
20220626201430 88 218 0.0 0.0 0.00 0.00 0.00 44 1019.7
20220626200429 87 131 0.0 2.0 0.00 0.00 0.00 44 1019.8
20220626200330 87 180 0.0 0.0 0.00 0.00 0.00 44 1019.9
20220626195329 87 333 1.0 3.0 0.00 0.00 0.00 44 1019.8
20220626194329 87 270 1.0 3.0 0.00 0.00 0.00 43 1020.1
20220626193328 87 337 0.0 0.0 0.00 0.00 0.00 45 1020.1
20220626193231 87 337 0.0 1.0 0.00 0.00 0.00 44 1020.1
20220626192328 87 321 0.0 3.0 0.00 0.00 0.00 45 1020.3
20220626192228 87 315 0.0 0.0 0.00 0.00 0.00 44 1020.3
20220626191230 87 270 0.0 1.0 0.00 0.00 0.00 44 1020.4
20220626190329 87 101 1.0 4.0 0.00 0.00 0.00 43 1020.7
20220626185329 87 318 2.0 3.0 0.00 0.00 0.00 45 1020.6
20220626185228 87 249 0.0 3.0 0.00 0.00 0.00 44 1020.6
20220626184229 87 292 0.0 0.0 0.00 0.00 0.00 45 1020.7
20220626183230 87 297 0.0 2.0 0.00 0.00 0.00 45 1020.7
20220626182329 86 315 0.0 1.0 0.00 0.00 0.00 45 1020.9
20220626181329 87 342 1.0 3.0 0.00 0.00 0.00 44 1021.1
20220626180428 87 163 1.0 1.0 0.00 0.00 0.00 45 1021.1
20220626175430 86 315 0.0 0.0 0.00 0.00 0.00 47 1021.3
20220626174432 85 360 0.0 0.0 0.00 0.00 0.00 47 1021.3
20220626173529 85 21 0.0 3.0 0.00 0.00 0.00 48 1021.6
20220626173429 85 358 0.0 0.0 0.00 0.00 0.00 48 1021.6
20220626173328 85 337 0.0 1.0 0.00 0.00 0.00 47 1021.6
20220626172329 86 315 0.0 3.0 0.00 0.00 0.00 48 1021.9
20220626172246 86 135 0.0 0.0 0.00 0.00 0.00 47 1021.8
20220626171328 85 22 0.0 0.0 0.00 0.00 0.00 48 1022.0
20220626171230 85 19 0.0 3.0 0.00 0.00 0.00 49 1022.0
20220626171130 85 280 2.0 3.0 0.00 0.00 0.00 49 1022.0
20220626170131 85 250 1.0 4.0 0.00 0.00 0.00 49 1022.0
20220626165228 85 45 0.0 1.0 0.00 0.00 0.00 51 1022.1
20220626164230 84 72 0.0 1.0 0.00 0.00 0.00 51 1022.3
20220626164130 84 157 1.0 2.0 0.00 0.00 0.00 52 1022.3
20220626163128 84 42 0.0 0.0 0.00 0.00 0.00 51 1022.4
20220626162130 84 308 0.0 2.0 0.00 0.00 0.00 50 1022.5
20220626161228 84 217 1.0 3.0 0.00 0.00 0.00 51 1022.7
20220626161131 84 231 1.0 3.0 0.00 0.00 0.00 50 1022.7
20220626160129 85 51 0.0 0.0 0.00 0.00 0.00 50 1022.7
20220626160030 85 151 0.0 0.0 0.00 0.00 0.00 50 1022.7
20220626155128 84 61 0.0 1.0 0.00 0.00 0.00 52 1022.7
20220626155029 84 315 0.0 0.0 0.00 0.00 0.00 51 1022.7
20220626154930 84 315 0.0 0.0 0.00 0.00 0.00 52 1022.7
20220626153930 84 200 1.0 3.0 0.00 0.00 0.00 51 1022.7
20220626153028 84 202 1.0 2.0 0.00 0.00 0.00 51 1022.8
20220626152930 84 254 0.0 1.0 0.00 0.00 0.00 51 1022.7
20220626152831 84 348 0.0 0.0 0.00 0.00 0.00 50 1022.7
20220626152731 84 360 0.0 1.0 0.00 0.00 0.00 51 1022.8
20220626151730 84 162 0.0 1.0 0.00 0.00 0.00 54 1022.8
20220626150828 83 225 0.0 2.0 0.00 0.00 0.00 56 1022.9
20220626150731 83 157 1.0 3.0 0.00 0.00 0.00 56 1022.9
20220626145828 82 180 0.0 0.0 0.00 0.00 0.00 56 1022.9
20220626144829 82 360 0.0 1.0 0.00 0.00 0.00 56 1022.9
20220626143830 81 67 0.0 0.0 0.00 0.00 0.00 57 1022.9
20220626142831 81 182 0.0 1.0 0.00 0.00 0.00 56 1023.0
20220626142729 81 112 0.0 2.0 0.00 0.00 0.00 57 1023.0
20220626142631 81 79 2.0 3.0 0.00 0.00 0.00 57 1023.1
20220626142528 81 7 0.0 1.0 0.00 0.00 0.00 58 1023.0
20220626141530 80 337 0.0 0.0 0.00 0.00 0.00 61 1023.2
20220626141430 80 337 0.0 0.0 0.00 0.00 0.00 62 1023.2
20220626141327 80 337 0.0 0.0 0.00 0.00 0.00 61 1023.2
20220626140330 79 337 1.0 2.0 0.00 0.00 0.00 64 1023.1
20220626135329 77 225 0.0 0.0 0.00 0.00 0.00 68 1023.3
20220626135229 76 225 0.0 0.0 0.00 0.00 0.00 69 1023.3
20220626134229 75 202 0.0 0.0 0.00 0.00 0.00 69 1023.3
20220626133228 75 67 0.0 0.0 0.00 0.00 0.00 73 1023.4
20220626133129 74 64 0.0 1.0 0.00 0.00 0.00 73 1023.4
20220626133031 74 169 0.0 2.0 0.00 0.00 0.00 74 1023.4
20220626132028 74 169 0.0 2.0 0.00 0.00 0.00 75 1023.5
20220626131128 73 135 0.0 0.0 0.00 0.00 0.00 77 1023.6
20220626131030 73 135 0.0 0.0 0.00 0.00 0.00 77 1023.6
20220626130029 72 270 0.0 0.0 0.00 0.00 0.00 81 1023.7
20220626125029 71 90 0.0 0.0 0.00 0.00 0.00 84 1023.8
20220626124929 71 90 0.0 0.0 0.00 0.00 0.00 84 1023.8
20220626124828 71 120 0.0 0.0 0.00 0.00 0.00 84 1023.8
20220626124729 71 180 0.0 0.0 0.00 0.00 0.00 84 1023.8
20220626123730 71 270 0.0 0.0 0.00 0.00 0.00 88 1024.1
20220626123630 70 270 0.0 0.0 0.00 0.00 0.00 88 1024.1
20220626122630 70 255 0.0 0.0 0.00 0.00 0.00 91 1024.0
20220626121629 69 225 0.0 0.0 0.00 0.00 0.00 91 1023.8
20220626120629 68 225 0.0 0.0 0.00 0.00 0.00 93 1023.9
20220626120531 68 241 0.0 0.0 0.00 0.00 0.00 93 1023.9
20220626120430 68 247 0.0 1.0 0.00 0.00 0.00 93 1023.9
20220626115430 67 180 0.0 0.0 0.00 0.00 0.00 95 1023.9
20220626115330 67 180 0.0 1.0 0.00 0.00 0.00 94 1023.9
20220626115230 67 180 0.0 0.0 0.00 0.00 0.00 95 1023.9
20220626114229 66 180 0.0 0.0 0.00 0.00 0.00 95 1023.9
20220626113231 66 225 0.0 0.0 0.00 0.00 0.00 96 1023.9
20220626112230 65 225 0.0 0.0 0.00 0.00 0.00 96 1023.9
20220626112128 65 225 0.0 0.0 0.00 0.00 0.00 96 1023.9
20220626111129 65 225 0.0 0.0 0.00 0.00 0.00 96 1024.0
20220626111028 65 225 0.0 0.0 0.00 0.00 0.00 96 1024.0
20220626110931 65 225 0.0 0.0 0.00 0.00 0.00 96 1024.0
20220626105928 0 0 0.0 0.0 0.00 0.00 0.00 100
20220626105830 0 0 0.0 0.0 0.00 0.00 0.00 100
20220626105728 0 0 0.0 0.0 0.00 0.00 0.00 100
20220626104828 0 0 0.0 0.0 0.00 0.00 0.00 100
20220626103830 0 0 0.0 0.0 0.00 0.00 0.00 100
20220626103727 0 0 0.0 0.0 0.00 0.00 0.00 100
20220626103630 0 0 0.0 0.0 0.00 0.00 0.00 100
20220626102728 0 0 0.0 0.0 0.00 0.00 0.00 100
20220626101729 0 0 0.0 0.0 0.00 0.00 0.00 100
20220626101627 0 0 0.0 0.0 0.00 0.00 0.00 100
20220626101529 0 0 0.0 0.0 0.00 0.00 0.00 100
20220626100628 0 0 0.0 0.0 0.00 0.00 0.00 100
20220626095628 64 225 0.0 0.0 0.00 0.00 0.00 94 1023.6
20220626094728 64 225 0.0 0.0 0.00 0.00 0.00 94 1023.4
20220626094629 64 225 0.0 0.0 0.00 0.00 0.00 94 1023.4
20220626094529 64 225 0.0 0.0 0.00 0.00 0.00 94 1023.4
20220626093528 0 0 0.0 0.0 0.00 0.00 0.00 100
20220626093428 0 0 0.0 0.0 0.00 0.00 0.00 100
20220626092428 0 0 0.0 0.0 0.00 0.00 0.00 100
20220626091430 0 0 0.0 0.0 0.00 0.00 0.00 100
20220626090430 0 0 0.0 0.0 0.00 0.00 0.00 100
20220626085430 0 0 0.0 0.0 0.00 0.00 0.00 100
20220626085328 0 0 0.0 0.0 0.00 0.00 0.00 100
20220626085228 0 0 0.0 0.0 0.00 0.00 0.00 100
20220626084327 65 225 0.0 0.0 0.00 0.00 0.00 93 1023.5
20220626083329 0 0 0.0 0.0 0.00 0.00 0.00 100
20220626082327 0 0 0.0 0.0 0.00 0.00 0.00 100
20220626081329 65 225 0.0 0.0 0.00 0.00 0.00 92 1023.4
20220626081226 65 225 0.0 0.0 0.00 0.00 0.00 92 1023.4
20220626080227 0 0 0.0 0.0 0.00 0.00 0.00 100
20220626075227 0 0 0.0 0.0 0.00 0.00 0.00 100
20220626074316 65 225 0.0 0.0 0.00 0.00 0.00 91 1023.4
20220626073314 66 225 0.0 0.0 0.00 0.00 0.00 92 1023.6
20220626073214 66 225 0.0 0.0 0.00 0.00 0.00 92 1023.6
20220626072214 66 225 0.0 0.0 0.00 0.00 0.00 92 1023.5
20220626072114 66 225 0.0 0.0 0.00 0.00 0.00 91 1023.5
20220626072015 66 225 0.0 0.0 0.00 0.00 0.00 91 1023.4
20220626071114 66 225 0.0 0.0 0.00 0.00 0.00 91 1023.5
20220626071015 66 225 0.0 0.0 0.00 0.00 0.00 91 1023.5
20220626070916 66 225 0.0 0.0 0.00 0.00 0.00 91 1023.5
20220626065915 66 225 0.0 0.0 0.00 0.00 0.00 90 1023.3
20220626064915 66 225 0.0 0.0 0.00 0.00 0.00 90 1023.3
20220626064816 66 225 0.0 0.0 0.00 0.00 0.00 90 1023.3
20220626063814 66 225 0.0 0.0 0.00 0.00 0.00 90 1023.1
20220626063714 66 225 0.0 0.0 0.00 0.00 0.00 90 1023.1
20220626062715 66 225 0.0 0.0 0.00 0.00 0.00 90 1023.2
20220626062615 66 225 0.0 0.0 0.00 0.00 0.00 90 1023.2
20220626061615 66 225 0.0 0.0 0.00 0.00 0.00 90 1023.2
20220626061514 66 225 0.0 0.0 0.00 0.00 0.00 90 1023.3
20220626060514 66 225 0.0 0.0 0.00 0.00 0.00 91 1023.2
20220626060417 66 225 0.0 0.0 0.00 0.00 0.00 91 1023.3
20220626060315 66 225 0.0 0.0 0.00 0.00 0.00 91 1023.3
20220626055315 67 225 0.0 0.0 0.00 0.00 0.00 90 1023.7
20220626054314 67 225 0.0 0.0 0.00 0.00 0.00 91 1023.5
20220626054214 67 225 0.0 0.0 0.00 0.00 0.00 90 1023.6
20220626053231 67 225 0.0 0.0 0.00 0.00 0.00 89 1023.5